PROBA-1 1 26958U 01049B 26264.30471609 .00001554 00000+0 10266-3 0 9996 2 26958 97.9631 276.2307 0054940 156.2980 204.0796 15.07821210358109 CUTE-1 (CO-55) 1 27844U 03031E 26264.27513155 .00000165 00000+0 90365-4 0 9999 2 27844 98.6774 271.6428 0008385 266.4617 93.5603 14.24383809205357 CUBESAT XI-IV (CO-57) 1 27848U 03031J 26263.53895000 .00000140 00000+0 80630-4 0 9990 2 27848 98.6806 270.5513 0008368 290.6978 69.3303 14.23661922204946 APRIZESAT 4 1 35684U 09041D 26264.14136299 .00000355 00000+0 49027-4 0 9993 2 35684 98.1339 341.3399 0043398 12.1215 348.1032 14.83995108925591 APRIZESAT 3 1 35686U 09041F 26264.12449462 .00001557 00000+0 13763-3 0 9994 2 35686 98.2193 62.0399 0062792 109.9506 250.8492 14.96469495930725 PROBA-2 1 36037U 09059B 26264.25002762 .00000099 00000+0 33498-4 0 9994 2 36037 98.2481 86.2997 0013004 349.6124 10.4803 14.54895470895499 APRIZESAT 5 1 37792U 11044E 26264.27438731 .00000655 00000+0 89577-4 0 9998 2 37792 98.2485 200.0567 0053207 54.0972 306.5161 14.81217120813012 APRIZESAT 6 1 37793U 11044F 26264.00880881 .00000339 00000+0 55216-4 0 9999 2 37793 98.2282 176.4301 0043858 137.8914 286.3456 14.77027007811295 PROBA-V 1 39159U 13021A 26264.19774912 .00000039 00000+0 35342-4 0 9996 2 39159 98.3716 238.1193 0003591 196.2548 163.8516 14.23613846694774 APRIZESAT 7 1 39416U 13066A 26264.28059295 .00000893 00000+0 93470-4 0 9995 2 39416 97.7811 216.1771 0034159 252.1587 107.5904 14.91758133695553 APRIZESAT 8 1 39425U 13066K 26264.25312087 .00000693 00000+0 80781-4 0 9992 2 39425 97.8306 210.4248 0045085 331.5812 28.2946 14.87804219693951 BUGSAT-1 (TITA) 1 40014U 14033E 26264.26845187 .00004194 00000+0 21783-3 0 9992 2 40014 98.0423 2.4946 0026739 210.0025 149.9676 15.16416395670397 SAUDISAT 4 1 40016U 14033G 26264.21733030 .00000435 00000+0 63873-4 0 9993 2 40016 97.7727 47.1188 0045927 120.0424 240.5356 14.79646092660275 APRIZESAT 9 1 40018U 14033J 26263.22739655 .00000376 00000+0 62814-4 0 9992 2 40018 97.9194 34.1791 0064675 254.4605 104.9457 14.74309661657563 APRIZESAT 10 1 40019U 14033K 26264.31435151 .00000223 00000+0 43120-4 0 9998 2 40019 97.9771 29.1958 0077902 327.7229 31.9223 14.70969335656382 TECHDEMOSAT-1 (TDS-1) 1 40076U 14037H 26263.99605878 .00004838 00000+0 26713-3 0 9997 2 40076 98.3885 265.8362 0004716 316.1172 43.9682 15.14486064662725 TECHNOSAT 1 42829U 17042E 26264.24379464 .00002687 00000+0 19069-3 0 9998 2 42829 97.4408 58.3532 0018569 123.8136 236.4862 15.05431844501156 FLYING LAPTOP 1 42831U 17042G 26264.28928566 .00001265 00000+0 10177-3 0 9990 2 42831 97.5015 56.3952 0017280 150.8913 209.3279 15.01612088500876 HAWK-A 1 43765U 18099H 26264.13505436 .00003865 00000+0 15235-3 0 9999 2 43765 97.3815 315.1363 0032522 308.8573 50.9764 15.25707909427728 HAWK-B 1 43794U 18099AN 26264.14310324 .00003713 00000+0 15535-3 0 9997 2 43794 97.3867 314.3517 0030264 328.8089 31.1351 15.23788317427648 HAWK-C 1 43799U 18099AT 26263.88713486 .00004798 00000+0 16748-3 0 9999 2 43799 97.3792 316.2909 0037713 307.6124 52.1695 15.29405189428539 SALSAT 1 46495U 20068K 26264.25927921 .00005106 00000+0 17325-3 0 9993 2 46495 97.8892 273.2830 0008444 335.3209 24.7626 15.30990001330059 HAWK-2C 1 47502U 21006CT 26263.83765309 .00004023 00000+0 11818-3 0 9997 2 47502 97.2199 306.2609 0005876 203.2705 156.8274 15.35681263314177 HAWK-2A 1 47505U 21006CW 26263.90301183 .00004002 00000+0 11744-3 0 9999 2 47505 97.2238 307.0613 0005326 206.7269 153.3701 15.35723354314187 HAWK-2B 1 47508U 21006CZ 26263.62988138 .00004454 00000+0 12975-3 0 9990 2 47508 97.2109 304.9781 0005792 205.0682 155.0281 15.35888271314145 HAWK-3B 1 48931U 21059BE 26263.83563002 .00049479 00000+0 29113-3 0 9999 2 48931 97.6553 110.1688 0002779 341.1538 18.9625 15.78094621292891 HAWK-3C 1 48948U 21059BX 26263.83530309 .00052924 00000+0 31116-3 0 9996 2 48948 97.6648 116.0074 0002961 343.4720 16.6449 15.78098396292891 HAWK-3A 1 48957U 21059CG 26263.83519450 .00050272 00000+0 29569-3 0 9993 2 48957 97.6612 113.1391 0003099 342.6384 17.4775 15.78098788292898 HAWK-5C 1 52754U 22057Y 26264.18253727 .00014185 00000+0 21718-3 0 9994 2 52754 97.6684 70.3350 0004590 83.0172 277.1603 15.54470275241241 HAWK-5B 1 52756U 22057AA 26264.18241886 .00014524 00000+0 22233-3 0 9999 2 52756 97.6701 68.7011 0005282 77.4066 282.7778 15.54464217241240 HAWK-5A 1 52757U 22057AB 26264.24657482 .00014919 00000+0 22825-3 0 9995 2 52757 97.6693 69.5961 0005231 80.2191 279.9653 15.54473569241250 HAWK-6B 1 55324U 23011A 26264.03223690 .00003815 00000+0 16381-3 0 9999 2 55324 40.4981 152.7197 0002888 317.4655 42.5931 15.23654156202462 HAWK-6C 1 55326U 23011C 26263.04838659 .00002453 00000+0 10823-3 0 9990 2 55326 40.4963 155.2931 0004121 308.9826 51.0616 15.23654808202329 HAWK-6A 1 55327U 23011D 26264.09716345 .00003150 00000+0 13667-3 0 9998 2 55327 40.4978 150.8022 0003662 309.1309 50.9175 15.23651180202481 HAWK-7A 1 56191U 23054P 26263.60318214 .00003563 00000+0 13219-3 0 9995 2 56191 97.2540 148.4920 0004592 69.7411 290.4322 15.28217137191591 HAWK-7B 1 56193U 23054R 26264.12694863 .00003985 00000+0 14757-3 0 9998 2 56193 97.2568 147.2986 0003809 79.1672 280.9996 15.28211075191671 HAWK-7C 1 56200U 23054Y 26264.25777208 .00001664 00000+0 63135-4 0 9993 2 56200 97.2542 148.1652 0004005 68.9806 291.1862 15.28212252191692